Location: Unspecified
(44.0704°N, 88.6889°W)
Time: 21:18:16
(UTC+02:00)

Vanguard 2 Rocket - Visible Passes

Search period start: 07 August 2020 00:00
Search period end: 17 August 2020 00:00
Orbit: 556 x 3324 km, 32.9° (Epoch: 07 August)

Date Brightness Start Highest point End Pass type
(mag) Time Alt. Az. Time Alt. Az. Time Alt. Az.
07 Aug 9.0 04:47:36 10° WSW 04:57:52 52° S 05:10:58 18° ESE visible
07 Aug 9.5 07:00:53 10° W 07:13:37 42° SSW 07:16:37 40° S visible
07 Aug 10.3 09:17:32 10° W 09:22:17 18° WSW 09:22:17 18° WSW visible
08 Aug 8.8 03:48:34 10° WSW 03:57:23 49° S 04:12:18 10° ESE visible
08 Aug 9.2 06:01:05 10° W 06:12:32 46° SSW 06:18:57 35° SSE visible
08 Aug 10.0 08:16:00 10° W 08:24:38 27° SW 08:24:38 27° SW visible
09 Aug 9.0 05:01:40 10° WSW 05:11:42 48° S 05:21:29 25° SE visible
09 Aug 9.6 07:15:23 10° W 07:27:10 34° SSW 07:27:10 34° SSW visible
10 Aug 8.8 04:02:35 10° WSW 04:11:12 47° S 04:24:09 14° ESE visible
10 Aug 9.4 06:15:25 10° W 06:26:17 38° SSW 06:29:51 35° S visible
10 Aug 10.3 08:31:39 10° WSW 08:35:34 16° WSW 08:35:34 16° WSW visible
11 Aug 9.1 05:15:54 10° WSW 05:25:33 42° SSW 05:32:38 28° SSE visible
11 Aug 9.9 07:30:23 10° WSW 07:38:21 24° SW 07:38:21 24° SW visible
12 Aug 8.9 04:16:44 10° WSW 04:25:06 43° S 04:35:32 18° SE visible
12 Aug 9.6 06:30:03 10° WSW 06:40:04 30° SSW 06:41:15 30° SSW visible
13 Aug 8.6 03:17:49 10° WSW 03:25:00 42° S 03:37:08 10° ESE visible
13 Aug 9.3 05:30:20 10° WSW 05:39:25 34° SSW 05:44:15 28° SSE visible
13 Aug 10.2 07:46:28 10° WSW 07:49:59 15° SW 07:49:59 15° SW visible
14 Aug 9.0 04:31:01 10° WSW 04:39:02 36° SSW 04:47:19 20° SE visible
14 Aug 9.9 06:45:19 10° WSW 06:53:03 22° SSW 06:53:03 22° SSW visible
15 Aug 8.8 03:32:01 10° WSW 03:38:57 37° S 03:50:23 10° SE visible
15 Aug 9.6 05:45:09 10° WSW 05:53:20 26° SSW 05:56:12 24° S visible
16 Aug 9.3 04:45:35 10° WSW 04:53:00 29° SSW 04:59:25 20° SSE visible
16 Aug 10.2 07:02:12 10° WSW 07:05:10 13° SW 07:05:10 13° SW visible
